Location: Bakhuizen
(52.8696°N, 5.4575°E)
Time: 20:33:02
(UTC+00:00)

ERBS - Pass Details

Date: 11 May 2021
Orbit: 399 x 417 km, 57.0° (Epoch: 20 June)

Event Time Altitude Azimuth Distance (km) Brightness Sun altitude
Rises 21:37:10 0° 295° (WNW) 2,352 7.0 -14.6°
Reaches altitude 10° 21:39:15 10° 298° (WNW) 1,491 5.9 -14.8°
Maximum altitude 21:42:34 66° 22° (NNE) 460 2.5 -15.0°
Enters shadow 21:44:39 21° 100° (E) 1,004 3.8 -15.1°
